BEIDOU-3 M11 (C25)

Last updated on Wed Nov 20 2024 00:03:14 GMT+0000 (Coordinated Universal Time)

1 43603U 18067B 24323.95976220 .00000025 00000+0 00000+0 0 9997 2 43603 54.2029 200.5165 0005090 27.3063 332.8132 1.86227192 42437
UTC large
Height (km)
Speed (km/s)
/
Latitude / Longitude
Inclination (degrees)
Orbital Period (minutes)
Azimuth
Elevation
Range (km)
Doppler Factor

Next 0 passes for location: London (51.5072 / 0.1276)

Sorry there are no passes over London.